Wind_Speed
9 9 10 11 11 12 13 13 12 13 13 12 13 12 12 12 12 12 12 12 13 13 13 13 14 14 16 16 13 13 18 20 20 21 23 25 26 27 29 29 30 29
9 10 11 11 12 12 13 13 12 13 13 13 14 13 12 13 13 13 13 13 13 12 12 12 12 11 14 14 12 12 15 16 18 21 22 25 26 27 28 28 27 27
10 10 11 12 13 13 13 13 12 13 13 12 14 13 12 14 15 15 14 15 15 12 11 12 12 9 10 12 12 13 14 13 15 17 17 18 20 23 25 26 26 26
11 11 11 12 13 14 13 13 12 12 13 12 13 13 12 13 14 14 14 15 15 13 10 11 12 10 10 11 12 11 12 12 12 14 15 15 15 17 19 21 24 25
10 11 12 11 12 13 13 13 12 12 12 12 13 13 12 13 12 12 13 14 14 14 12 10 11 11 11 11 12 11 11 12 12 11 12 13 14 15 16 17 19 20
8 9 12 13 12 12 12 12 12 12 12 12 12 12 12 11 11 11 12 13 12 12 12 11 12 12 11 11 12 12 12 13 13 12 11 13 14 14 15 16 17 16
7 7 9 11 12 11 11 12 12 12 12 12 12 11 10 10 10 10 10 11 9 8 10 10 11 11 10 11 11 11 12 12 13 14 13 14 14 14 13 12 13 13
7 6 6 7 9 11 11 12 13 13 13 12 12 11 10 9 8 6 6 6 4 6 8 9 9 10 10 10 10 10 10 10 11 13 13 14 15 14 14 12 11 10
6 6 7 7 9 11 12 12 13 12 13 13 13 11 9 8 7 7 6 5 6 7 8 9 10 11 10 10 10 10 10 9 9 10 13 15 15 14 14 13 13 11
8 7 7 7 9 11 12 13 14 13 12 13 13 11 11 10 10 10 10 10 10 9 9 10 11 12 12 11 11 11 10 10 8 8 12 14 15 15 14 14 14 13
10 9 8 8 9 10 11 13 14 14 13 13 12 13 15 14 12 12 13 13 13 12 10 11 12 12 13 12 12 12 11 10 8 7 10 12 13 14 16 16 14 13
9 8 9 9 9 9 11 11 12 13 13 13 13 14 16 16 14 14 15 15 15 13 11 11 12 12 13 12 12 12 11 10 8 6 9 13 12 11 13 15 13 12
9 8 9 9 9 10 10 10 10 11 12 13 12 12 14 15 15 17 17 15 13 13 12 13 12 11 12 12 13 13 12 11 9 6 8 13 12 9 10 12 12 11
10 9 9 9 9 10 10 10 10 11 12 12 12 11 11 13 15 17 19 17 14 14 14 13 13 13 13 14 15 14 13 13 10 8 10 11 10 7 8 10 11 12
7 7 8 8 9 9 10 10 10 11 12 12 12 13 12 13 13 14 16 16 14 15 16 15 15 16 16 17 17 16 16 15 12 11 12 11 10 9 7 8 9 10
5 6 6 7 8 8 9 10 10 11 12 11 12 13 11 11 10 11 12 12 14 14 16 16 16 17 17 17 16 15 15 14 12 12 12 11 11 12 10 8 8 9
5 6 6 6 7 8 8 9 9 10 10 10 11 11 10 10 9 8 9 9 12 14 15 16 17 16 16 15 15 14 14 13 13 12 12 12 13 12 11 10 9 8
5 6 6 6 7 8 8 9 8 8 9 10 11 11 11 12 12 10 9 8 10 13 14 16 17 17 16 16 15 14 14 13 12 12 13 13 13 14 13 13 10 9
5 5 6 6 6 7 8 9 8 8 9 10 10 10 10 10 11 12 11 8 10 13 15 16 17 18 18 18 17 16 15 13 12 13 13 14 14 15 13 14 15 15
5 6 7 6 6 7 7 7 7 8 9 9 8 8 9 10 12 13 13 10 9 13 15 16 18 19 19 19 18 19 17 14 14 15 14 14 16 15 12 15 19 20
5 6 7 6 7 7 6 6 7 7 9 9 9 9 8 9 12 14 14 11 10 13 15 16 18 19 19 19 19 19 17 15 16 16 14 14 16 14 13 17 19 20
5 5 6 6 6 5 5 7 8 8 9 10 9 9 9 8 10 14 15 13 11 13 15 16 18 18 19 20 19 18 18 17 16 16 14 14 16 15 15 18 20 21
5 5 6 6 4 4 6 8 8 8 10 10 9 9 9 8 8 12 14 13 12 13 15 17 18 19 19 20 20 19 18 18 17 16 14 13 15 15 18 20 20 23
6 5 5 5 3 5 7 7 7 8 9 9 8 7 8 7 6 9 12 13 12 13 15 17 18 19 19 19 19 19 18 18 18 17 16 13 12 13 16 20 20 21
6 6 5 5 4 5 7 6 6 8 9 8 7 6 6 5 6 8 10 13 13 11 13 17 19 19 20 20 19 19 18 18 17 16 16 14 11 11 12 15 18 20
5 5 5 5 5 6 7 7 7 7 8 7 6 7 7 7 6 6 7 11 12 10 13 17 19 19 20 20 20 19 19 18 17 17 17 16 14 12 11 12 16 19
Wind_Direction
356 356 353 358 2 4 5 4 7 9 8 5 0 356 349 343 336 330 329 321 314 316 319 313 311 316 314 310 313 300 281 271 266 262 260 257 254 252 251 251 254 256
349 352 354 357 358 2 4 2 5 6 7 8 4 360 356 352 349 348 347 342 337 333 334 335 325 321 326 324 317 310 302 289 273 266 265 260 256 257 258 258 259 259
345 348 353 356 355 358 360 359 2 3 2 2 2 359 357 358 359 2 2 1 2 354 342 344 344 339 339 336 327 319 320 311 285 278 283 276 265 266 267 264 264 265
344 348 353 354 354 355 357 355 357 1 359 356 356 355 356 358 360 6 11 13 17 12 355 352 356 353 348 349 346 334 333 333 310 297 302 300 288 282 280 273 268 266
346 353 353 353 355 355 356 355 355 0 2 357 352 352 357 2 3 7 10 11 17 19 13 10 11 9 7 8 8 3 358 355 344 323 312 311 305 297 292 287 282 277
344 1 359 357 358 358 360 1 1 3 6 6 1 356 358 3 5 7 10 11 13 18 19 15 12 15 21 21 20 20 13 6 5 0 345 332 324 314 304 295 291 290
353 4 6 2 0 3 5 5 9 9 9 10 7 3 5 10 14 22 32 35 28 17 13 10 6 5 12 19 24 26 21 14 14 13 5 355 350 346 336 316 300 296
4 4 5 5 4 10 12 9 13 14 10 12 12 13 18 25 28 37 54 55 31 7 7 7 3 357 359 5 13 20 18 17 22 17 7 2 3 4 2 351 334 319
6 17 8 13 17 16 15 14 16 16 11 14 18 18 17 15 8 3 7 6 359 8 11 3 359 1 3 360 2 10 8 8 22 21 8 3 3 5 7 2 352 344
10 24 18 27 28 18 19 21 22 21 15 16 22 15 3 1 4 8 11 6 4 12 10 1 3 13 18 15 9 8 6 3 10 25 22 9 360 1 3 1 358 354
11 14 20 31 25 16 20 24 24 24 18 16 22 14 3 3 12 21 19 10 11 22 26 21 23 25 24 22 19 14 14 12 6 22 36 21 5 3 1 359 1 0
3 14 23 25 23 21 24 24 25 27 21 20 27 24 16 11 10 18 22 17 19 28 37 36 31 27 20 14 15 13 13 17 13 19 39 28 16 14 9 2 358 356
358 25 28 21 26 30 29 26 26 30 29 29 33 36 34 26 15 13 13 14 21 23 25 27 22 18 16 12 13 14 12 17 15 20 42 30 16 21 27 14 357 350
4 27 29 23 30 32 30 29 29 32 35 35 35 37 45 44 33 20 8 5 20 28 23 22 19 15 20 23 24 24 24 24 20 28 41 28 6 8 28 19 359 346
16 30 27 23 28 31 32 32 32 34 35 35 36 35 40 49 49 41 20 1 4 20 22 22 23 20 22 26 25 26 30 29 27 37 38 21 8 14 24 26 6 341
26 33 32 27 27 29 33 33 33 37 35 33 36 33 31 39 47 57 46 7 348 1 13 18 22 22 22 22 19 21 27 26 26 36 35 20 20 23 19 28 25 347
36 32 34 39 35 27 34 40 36 38 37 31 35 34 22 19 26 49 60 21 347 354 7 14 19 20 20 20 17 17 21 19 23 32 28 19 22 20 8 11 27 3
49 42 39 47 44 29 31 40 39 44 44 33 34 35 25 20 21 33 52 30 355 1 13 17 20 23 23 22 21 22 20 18 24 27 20 14 22 25 10 358 7 7
56 58 49 47 50 42 37 39 39 51 54 41 34 34 30 26 19 22 37 32 4 8 19 21 24 30 30 27 29 30 23 18 26 28 17 14 27 35 18 352 354 1
63 68 60 51 55 55 47 44 48 62 62 47 38 39 29 19 15 18 30 31 9 12 24 28 29 32 30 28 31 32 25 23 31 30 21 24 36 38 13 349 354 2
64 73 69 56 54 55 54 56 57 69 73 55 39 42 35 15 10 16 27 31 19 19 30 32 29 29 28 26 29 30 24 26 33 30 26 37 45 35 0 349 357 5
68 80 78 64 56 54 61 66 59 62 73 62 38 35 41 27 5 9 27 42 36 29 34 33 26 25 26 23 25 27 25 25 32 31 29 41 46 25 353 348 357 5
77 76 76 73 74 69 65 63 58 57 63 59 38 25 38 41 10 5 25 43 47 40 38 34 25 21 22 22 21 23 23 24 28 30 29 39 47 24 352 344 354 3
107 98 89 82 85 88 77 64 61 64 62 60 49 28 33 42 23 10 16 22 32 40 38 33 30 24 20 21 21 19 21 22 23 25 27 33 49 40 4 345 350 2
139 134 124 108 93 90 85 71 66 70 66 66 62 44 44 49 30 19 11 7 16 25 20 19 24 23 19 20 21 19 20 21 19 21 26 24 33 45 23 352 348 358
146 136 127 115 99 88 84 75 72 72 67 62 49 41 58 68 53 36 13 8 14 6 355 0 6 11 14 16 16 15 16 17 16 18 21 19 16 24 22 2 353 357
Height
1528 1527 1527 1526 1525 1524 1524 1523 1522 1521 1520 1519 1519 1518 1517 1517 1516 1516 1515 1514 1515 1516 1515 1514 1513 1513 1513 1511 1512 1513 1512 1512 1512 1511 1511 1512 1512 1512 1513 1513 1513 1514
1527 1526 1526 1525 1524 1524 1523 1523 1522 1521 1520 1520 1519 1518 1517 1516 1516 1515 1515 1513 1513 1515 1515 1514 1513 1513 1512 1512 1513 1513 1512 1511 1511 1511 1511 1511 1511 1511 1511 1511 1511 1511
1525 1525 1525 1524 1523 1523 1523 1522 1522 1521 1521 1520 1518 1517 1516 1516 1516 1515 1514 1513 1512 1513 1514 1514 1513 1512 1512 1512 1512 1512 1511 1510 1510 1510 1510 1510 1510 1510 1509 1509 1509 1509
1524 1524 1524 1523 1523 1522 1522 1522 1522 1521 1521 1520 1518 1518 1517 1516 1516 1515 1514 1514 1513 1514 1514 1513 1512 1512 1511 1511 1511 1510 1510 1509 1508 1508 1508 1508 1508 1507 1506 1506 1506 1506
1523 1523 1523 1523 1522 1522 1522 1521 1521 1521 1520 1519 1518 1518 1517 1517 1516 1516 1516 1515 1514 1514 1514 1513 1512 1511 1510 1510 1510 1509 1509 1508 1507 1506 1505 1505 1505 1504 1504 1504 1504 1504
1523 1523 1523 1522 1522 1522 1522 1521 1521 1520 1520 1519 1518 1518 1517 1517 1516 1515 1516 1515 1514 1513 1513 1513 1512 1511 1510 1509 1509 1508 1508 1507 1505 1504 1504 1503 1503 1502 1501 1502 1502 1502
1522 1522 1522 1522 1522 1522 1521 1521 1521 1520 1519 1519 1518 1517 1517 1516 1516 1516 1516 1515 1513 1513 1512 1512 1511 1510 1510 1509 1508 1507 1507 1506 1505 1504 1503 1503 1502 1501 1500 1500 1500 1500
1522 1522 1522 1522 1522 1521 1521 1521 1521 1520 1519 1519 1518 1517 1517 1516 1516 1515 1515 1514 1513 1512 1512 1511 1510 1509 1509 1508 1508 1507 1506 1505 1504 1504 1504 1503 1502 1502 1501 1500 1500 1499
1522 1522 1522 1522 1522 1521 1521 1521 1521 1520 1519 1519 1518 1517 1516 1516 1516 1515 1514 1514 1513 1512 1511 1510 1509 1509 1508 1507 1507 1506 1505 1505 1504 1504 1504 1504 1503 1502 1501 1501 1500 1499
1522 1522 1522 1522 1522 1522 1521 1521 1521 1520 1520 1519 1518 1517 1516 1516 1515 1514 1513 1512 1512 1511 1510 1509 1509 1508 1508 1507 1506 1506 1505 1505 1504 1503 1504 1504 1503 1502 1501 1501 1500 1499
1523 1522 1522 1522 1522 1522 1522 1522 1521 1521 1520 1519 1518 1517 1516 1515 1514 1513 1512 1511 1510 1510 1510 1509 1509 1508 1508 1507 1507 1506 1505 1505 1504 1503 1503 1504 1503 1502 1501 1501 1500 1499
1524 1523 1523 1523 1523 1523 1522 1522 1522 1521 1521 1520 1519 1518 1517 1515 1514 1513 1513 1512 1511 1511 1510 1510 1509 1509 1508 1507 1507 1506 1505 1505 1504 1503 1503 1504 1503 1503 1502 1501 1500 1499
1524 1524 1524 1523 1523 1523 1523 1523 1522 1522 1521 1520 1520 1519 1518 1517 1515 1514 1513 1512 1512 1511 1511 1510 1510 1509 1509 1508 1507 1506 1505 1504 1504 1503 1503 1503 1503 1503 1502 1501 1500 1499
1525 1525 1524 1524 1524 1524 1523 1523 1522 1522 1521 1520 1520 1519 1518 1518 1516 1515 1514 1512 1513 1512 1511 1511 1510 1509 1508 1507 1507 1506 1505 1504 1503 1502 1502 1503 1503 1502 1502 1501 1500 1499
1526 1525 1525 1525 1524 1524 1524 1523 1523 1522 1521 1520 1520 1518 1518 1518 1517 1517 1516 1514 1513 1513 1512 1511 1510 1509 1507 1506 1506 1505 1504 1504 1503 1502 1502 1503 1502 1501 1501 1501 1499 1498
1526 1526 1525 1525 1525 1524 1524 1523 1523 1522 1521 1521 1520 1519 1518 1518 1518 1518 1518 1516 1514 1513 1513 1511 1510 1509 1507 1507 1506 1505 1505 1504 1503 1503 1502 1502 1502 1501 1500 1500 1499 1498
1526 1526 1525 1525 1525 1524 1524 1523 1523 1522 1522 1521 1520 1520 1519 1518 1518 1518 1517 1516 1514 1513 1513 1511 1510 1509 1508 1507 1507 1505 1505 1504 1503 1503 1502 1502 1501 1501 1500 1499 1499 1498
1527 1526 1526 1525 1525 1525 1524 1523 1523 1522 1522 1521 1521 1521 1520 1519 1518 1518 1517 1516 1515 1514 1513 1512 1511 1510 1509 1508 1507 1506 1505 1504 1503 1503 1502 1502 1501 1501 1500 1498 1498 1497
1527 1526 1526 1526 1525 1525 1524 1523 1523 1522 1522 1522 1522 1521 1521 1520 1519 1518 1518 1517 1515 1514 1514 1513 1512 1511 1509 1508 1507 1506 1506 1504 1503 1503 1502 1502 1501 1501 1500 1498 1497 1497
1527 1526 1526 1526 1525 1525 1525 1524 1523 1523 1522 1523 1523 1522 1521 1521 1519 1518 1518 1517 1516 1515 1515 1513 1512 1511 1510 1509 1508 1507 1506 1505 1504 1503 1503 1502 1502 1501 1500 1498 1497 1496
1527 1526 1526 1526 1525 1525 1525 1524 1524 1523 1523 1523 1523 1522 1522 1521 1520 1519 1518 1518 1517 1516 1515 1514 1513 1512 1511 1510 1508 1507 1507 1505 1504 1503 1503 1502 1502 1502 1500 1499 1498 1496
1527 1526 1526 1526 1526 1526 1525 1524 1524 1524 1523 1524 1523 1523 1523 1522 1521 1520 1519 1518 1517 1517 1516 1515 1514 1513 1511 1510 1509 1508 1507 1506 1505 1504 1503 1502 1502 1502 1501 1499 1498 1496
1527 1527 1526 1526 1526 1526 1525 1525 1525 1524 1524 1524 1524 1524 1524 1523 1522 1521 1520 1519 1518 1517 1517 1516 1514 1513 1512 1511 1510 1509 1508 1506 1505 1504 1504 1503 1502 1502 1501 1499 1497 1496
1527 1527 1527 1526 1526 1526 1526 1525 1525 1525 1524 1525 1525 1525 1524 1524 1523 1522 1521 1520 1519 1518 1517 1516 1515 1514 1513 1512 1510 1509 1508 1507 1506 1505 1504 1503 1503 1502 1502 1500 1498 1497
1526 1526 1526 1526 1526 1526 1526 1525 1525 1525 1525 1525 1525 1525 1524 1524 1524 1523 1522 1521 1520 1519 1518 1517 1517 1515 1514 1513 1511 1510 1509 1507 1506 1505 1504 1504 1503 1502 1502 1501 1498 1497
1526 1526 1526 1526 1526 1526 1525 1525 1525 1525 1525 1525 1525 1525 1524 1524 1524 1524 1523 1522 1521 1520 1519 1518 1517 1516 1515 1513 1512 1511 1509 1508 1507 1505 1504 1504 1503 1502 1501 1500 1499 1497